Regional Weather Roundup
Issued by NWS

Home | Current Version | Previous Version | Graphics & Text | Print | Product List | Glossary On
Versions: 1 2 3 4 5 6 7 8 9 10 11 12 13 14 15 16 17 18 19 20 21 22 23 24 25 26 27 28 29 30 31 32 33 34 35 36 37 38 39 40 41 42 43 44 45 46 47 48 49 50
000
ASUS43 KIND 280559
RWRIN

WEATHER ROUNDUP FOR INDIANA
NATIONAL WEATHER SERVICE INDIANAPOLIS IN
200 AM EDT THU AUG 28 2014

NOTE: "FAIR" INDICATES FEW OR NO CLOUDS BELOW 12,000 FEET WITH NO
SIGNIFICANT WEATHER AND/OR OBSTRUCTIONS TO VISIBILITY.

* - STATION DOES NOT REPORT WEATHER SUCH AS PRECIPITATION OR FOG.

+ - STATION NOT QUALITY CONTROLLED BY THE NATIONAL WEATHER SERVICE.
    USE DATA WITH CAUTION...ESPECIALLY DEWPOINT AND RELATIVE
    HUMIDITY OBSERVATIONS.

INZ001>003-010>013-019-020-280700-
NORTHWEST INDIANA

CITY           SKY/WX    TMP DP  RH WIND       PRES   REMARKS
KNOX *+        FAIR      60  57  90 CALM      30.12S
MONTICELLO +   FAIR      63  61  93 NE3       30.10S
VALPARAISO     FAIR      60  58  92 CALM      30.14R
6HR MIN TEMP:  59; 6HR MAX TEMP:  69;


$$

LMZ046-743>745-280700-
SOUTHERN LAKE MICHIGAN

STATION/POSITION TIME  TEMP WIND        PRES
                       AIR  DIR/SP/G
                 (UTC) (F)  (DEG/KT/KT) (MB)
MICHIGAN CITY    0500   66   50/ 10/ 13   N/A

$$

INZ004-005-014>016-021>024-280700-
NORTH CENTRAL INDIANA

CITY           SKY/WX    TMP DP  RH WIND       PRES   REMARKS
GOSHEN         FAIR      64  60  87 CALM      30.13R
6HR MIN TEMP:  63; 6HR MAX TEMP:  74;

SOUTH BEND     FAIR      63  57  81 NE3       30.14R
6HR MIN TEMP:  63; 6HR MAX TEMP:  69;


$$

INZ006>009-017-018-025>027-280700-
NORTHEAST INDIANA

CITY           SKY/WX    TMP DP  RH WIND       PRES   REMARKS
ANGOLA *+      CLEAR     63  59  88 N5        30.12S
FORT WAYNE     FAIR      64  59  83 N5        30.11S
6HR MIN TEMP:  64; 6HR MAX TEMP:  75;


$$

INZ028-029-035-036-043>045-051>053-280700-
WEST CENTRAL INDIANA

CITY           SKY/WX    TMP DP  RH WIND       PRES   REMARKS
GREENCASTLE +  FAIR      68  64  88 NE3       30.09S
LAFAYETTE      FAIR      65  60  84 NE7       30.10S
6HR MIN TEMP:  65; 6HR MAX TEMP:  76;

TERRE HAUTE    FAIR      71  67  87 NE5       30.07F
6HR MIN TEMP:  69; 6HR MAX TEMP:  80;


$$

INZ030>032-037>040-046>048-054>057-064-065-280700-
CENTRAL INDIANA

CITY           SKY/WX    TMP DP  RH WIND       PRES   REMARKS
FRANKFORT +    FAIR      65  65 100 NE5       30.11F
INDIANAPOLIS   FAIR      70  62  76 NE8       30.07S
6HR MIN TEMP:  70; 6HR MAX TEMP:  81;

-EAGLE CREEK   FAIR      71  61  70 NE3       30.08S
6HR MIN TEMP:  70; 6HR MAX TEMP:  80;

KOKOMO *+      FAIR      64  61  88 NE6       30.11S
MT COMFORT *+  FAIR      64 N/A N/A N3        30.09S
SHELBYVILLE    FAIR      70  65  84 NE5       30.07S
6HR MIN TEMP:  70; 6HR MAX TEMP:  81;


$$

INZ033-034-041-042-049-050-058-059-280700-
EAST CENTRAL INDIANA

CITY           SKY/WX    TMP DP  RH WIND       PRES   REMARKS
MUNCIE         FAIR      65  61  87 NE5       30.10R
6HR MIN TEMP:  65; 6HR MAX TEMP:  76;


$$

INZ060-061-067>069-081>083-085>088-280700-
SOUTHWEST INDIANA

CITY           SKY/WX    TMP DP  RH WIND       PRES   REMARKS
EVANSVILLE     FAIR      77  71  82 CALM      30.05R
6HR MIN TEMP:  77; 6HR MAX TEMP:  88;


$$

INZ062-063-066-070>080-084-089>092-280700-
SOUTH CENTRAL AND SOUTHEAST INDIANA

CITY           SKY/WX    TMP DP  RH WIND       PRES   REMARKS
BLOOMINGTON    FAIR      73  66  78 E5        30.07F
6HR MIN TEMP:  73; 6HR MAX TEMP:  82;


$$



USA.gov is the U.S. government's official web portal to all federal, state and local government web resources and services.